CAPE
3225 1991 1848 2613 1784 1486 797 826 2085 2189 1913 2572 2738 2423 2483 1416 1552 2040 1356 1876 2689 1469
3344 2695 2185 2781 2017 1493 2029 1485 2038 1956 2295 2604 2037 2461 3124 1225 2406 1776 1701 1743 1984 2037
2589 2786 2566 2366 2456 1799 1879 2732 2462 2416 2353 2589 2922 2806 3235 1696 2357 2482 1936 1619 2521 2746
2561 2464 2497 1961 2129 2504 2144 2460 2419 2840 2770 2971 2704 3137 2951 3481 3243 2563 3046 2431 2661 2906
2894 2889 2399 2364 2112 2432 2410 2277 2922 2739 2965 2930 2758 2933 2809 2191 2144 2374 2481 2875 2951 2122
2882 2832 2616 2544 2896 3048 3038 2524 1596 2895 2993 2784 2488 2836 2915 3013 2860 2402 2328 2451 3107 2512
3143 2993 2783 3255 3632 3255 3382 3358 3018 2900 2983 2742 2574 2522 2677 3026 3185 2647 2330 3407 3673 3160
4221 3725 4101 4353 4339 4040 3773 3156 3420 3244 2947 2909 2152 1719 2974 2904 2560 3216 3151 3275 2824 3303
4739 4871 4695 4669 4535 4356 3770 3765 3733 3448 3263 3126 1842 1158 1151 2021 2474 2710 2787 2492 3476 3529
4875 4556 4653 4407 4504 4361 4161 3896 3942 3572 3446 3462 3387 1536 1054 1034 1327 2050 2961 3312 3305 2185
4714 4574 4653 4570 4514 4530 4114 4200 4109 3618 3747 3758 3251 1805 1413 1064 1621 2190 2362 2463 2355 2725
3865 4268 4445 4386 4250 4024 3781 3807 3513 3314 3940 4069 3850 1891 1652 1488 2301 2239 2771 2641 2642 2731
4137 4252 4412 4802 4841 4638 4351 4078 3614 4054 3907 3226 3980 2737 1819 1571 1934 2018 1596 2532 3196 2013
3969 4098 3757 3452 4254 4644 4449 4555 4659 4266 4351 4168 3621 3320 1857 1562 2028 1465 1540 3112 3218 1796
CIN
-0 -0 -0 -3 -2 -0 -0 -0 -3 -2 -0 -0 -0 -0 -0 -0 -0 -0 -0 -0 -0 -0
-0 -0 -0 -4 -2 -0 -1 -18 -2 -2 -0 -0 -0 -3 -0 -0 -0 -0 -0 -0 -0 -0
-0 -0 -0 -0 -0 -2 -7 -5 -8 -0 -0 -0 -0 -0 -0 -0 -0 -0 -0 -0 -0 -0
-7 -2 -0 -0 -0 -0 -0 -0 -3 -1 -0 -0 -0 -0 -0 -0 -1 -0 -0 -0 -6 -0
-5 -0 -1 -0 -0 -1 -3 -8 -0 -0 -0 -0 -0 -0 -0 -0 -0 -0 -0 -0 -0 -0
-12 -6 -2 -5 -0 -0 -0 -0 -0 -0 -0 -0 -0 -0 -0 -0 -0 -0 -0 -0 -0 -0
-20 -12 -8 -0 -0 -0 -0 -0 -0 -0 -0 -0 -0 -0 -0 -0 -0 -0 -0 -0 -0 -0
-1 -3 -0 -0 -0 -0 -0 -0 -0 -0 -0 -0 -0 -0 -0 -0 -0 -0 -0 -0 -0 -0
-0 -0 -0 -0 -0 -0 -0 -0 -0 -0 -0 -0 -0 -11 -5 -10 -0 -0 -0 -3 -0 -0
-2 -0 -0 -0 -0 -0 -0 -0 -0 -0 -0 -0 -0 -12 -22 -22 -5 -0 -0 -0 -0 -0
-9 -8 -0 -0 -0 -0 -0 -0 -0 -0 -0 -0 -0 -29 -42 -61 -23 -0 -0 -0 -0 -0
-37 -22 -2 -0 -1 -1 -0 -0 -0 -0 -0 -0 -0 -54 -71 -61 -3 -0 -0 -0 -0 -0
-12 -11 -4 -0 -0 -0 -0 -0 -0 -0 -0 -0 -0 -2 -52 -73 -17 -4 -26 -0 -0 -4
-26 -9 -6 -3 -0 -0 -0 -0 -0 -0 -0 -0 -0 -0 -30 -67 -25 -56 -22 -2 -0 -1
Wind_Speed
8 6 6 6 12 2 3 16 20 13 8 9 12 12 10 9 7 7 8 7 7 6
10 8 5 8 4 2 2 6 2 7 7 10 11 10 9 6 8 9 10 8 10 9
11 10 7 5 7 3 5 7 9 8 9 6 9 7 10 7 9 10 10 12 11 13
10 11 9 7 8 2 5 10 12 11 11 10 10 10 12 10 12 15 12 9 11 11
11 10 10 6 10 9 3 5 12 11 12 10 11 11 12 12 10 13 10 9 10 8
12 12 12 11 6 9 11 8 7 10 8 8 7 8 8 8 8 10 9 8 8 8
10 11 10 11 10 7 6 7 7 7 8 5 2 3 5 7 9 9 7 7 7 8
11 10 9 9 10 7 8 5 4 4 4 3 1 4 4 5 6 8 6 9 10 9
17 16 16 13 11 10 7 7 6 4 4 3 4 5 9 9 9 7 10 9 9 11
20 19 19 19 16 14 13 10 7 6 6 7 9 13 17 14 7 8 11 12 14 14
25 22 21 21 20 19 15 13 13 9 7 9 12 15 18 18 12 13 13 14 15 15
26 27 26 23 22 19 18 15 12 11 11 10 12 19 20 20 13 13 14 15 16 15
29 30 31 28 25 24 21 21 19 17 14 13 13 21 23 22 16 16 18 21 23 35
31 34 36 36 33 28 26 24 26 21 22 19 18 16 23 23 19 20 23 26 28 32
Wind_Direction
337 302 305 295 333 338 231 194 204 248 260 265 275 275 256 270 289 297 290 293 276 245
354 7 336 301 20 30 29 176 188 257 286 285 273 254 259 260 244 258 263 274 284 271
1 0 11 325 285 173 234 243 230 283 296 308 286 269 275 252 281 262 254 263 258 267
343 345 351 348 321 287 278 263 255 270 271 271 272 280 280 252 216 269 268 257 238 272
344 351 352 352 320 326 302 250 288 277 271 263 272 267 269 265 248 262 240 245 249 245
331 336 346 346 341 312 327 336 336 306 288 273 271 271 272 260 245 227 230 228 254 262
343 339 338 326 325 323 313 322 334 326 320 321 284 245 239 244 245 234 228 239 235 247
328 319 312 312 308 302 305 309 320 328 315 295 254 245 273 252 252 258 244 224 232 251
313 315 321 316 314 302 293 287 293 298 297 276 245 268 267 252 253 252 267 260 235 243
307 316 310 310 313 314 314 304 282 272 273 281 281 270 270 275 258 235 241 254 257 252
292 304 317 321 312 307 308 311 297 282 272 275 277 278 277 275 265 256 251 245 243 248
281 292 301 307 310 304 292 282 277 268 258 266 271 284 283 275 259 260 266 270 274 273
267 277 287 292 295 293 299 287 276 271 245 236 242 266 279 281 271 282 288 293 294 277
254 263 267 269 275 275 282 284 278 255 253 252 260 251 279 288 275 282 294 285 281 276